{"data":{"norad_id":66404,"epoch":"2026-05-25T05:20:23.008992Z","epoch_age_seconds":55690,"freshness":"FRESH","line1":"1 66404U 25257AA  26145.22248853  .00025208  00000+0  75437-3 0  9998","line2":"2 66404  53.1583 220.6373 0001313  70.2098 289.9046 15.34414274 31461","mean_motion":15.34414274,"eccentricity":0.0001313,"inclination_deg":53.1583,"raan_deg":220.6373,"arg_perigee_deg":70.2098,"mean_anomaly_deg":289.9046,"bstar":0.00075437,"rev_number":3146,"period_min":93.846885055763,"perigee_km":461.76261844675,"apogee_km":463.55901195302,"semimajor_km":6840.7978151999,"source":"CELESTRAK","updated_at":"2026-05-25T13:38:21.205261Z"}}